CW8756 Weather Reports


time (UTC)temp
C
wind
direction
speed
KPH
gust
KPH
rain 1hr
cm
rain 24hr
cm
rain mn
cm
humidity
%
barometer
mb
20260507194529 28 346 0.0 0.0 0.00 0.00 0.00 100 1013.2
20260507193027 28 357 0.0 0.0 0.00 0.00 0.00 100 1013.3
20260507191527 28 332 0.0 0.0 0.00 0.00 0.00 100 1013.3
20260507190024 28 62 0.0 0.0 0.00 0.00 0.00 100 1013.3
20260507184524 28 310 0.0 0.0 0.00 0.00 0.00 100 1013.4
20260507183022 28 359 0.0 0.0 0.00 0.00 0.00 100 1013.8
20260507181520 29 6 0.0 0.0 0.00 0.00 0.00 100 1014.0
20260507180023 29 308 0.0 0.0 0.00 0.00 0.00 100 1014.2
20260507174523 29 308 0.0 0.0 0.00 0.00 0.00 100 1014.3
20260507173044 29 25 0.0 0.0 0.00 0.00 0.00 100 1014.5
20260507171523 28 34 0.0 0.0 0.00 0.00 0.00 100 1014.7
20260507170015 28 27 0.0 0.0 0.00 0.00 0.00 100 1014.9
20260507164517 28 292 0.0 0.0 0.00 0.00 0.00 100 1015.1
20260507163013 28 329 0.0 0.0 0.00 0.00 0.00 100 1015.2
20260507161513 29 320 0.0 0.0 0.00 0.00 0.00 100 1015.5
20260507160012 28 346 0.0 0.0 0.00 0.00 0.00 100 1015.5
20260507154510 28 358 0.0 0.0 0.00 0.00 0.00 100 1015.6
20260507153009 28 320 0.0 0.0 0.00 0.00 0.00 100 1015.6
20260507151508 28 63 0.0 0.0 0.00 0.00 0.00 100 1015.7
20260507150005 28 349 0.0 0.0 0.00 0.00 0.00 100 1015.9
20260507144501 28 7 0.0 0.0 0.00 0.00 0.00 100 1015.7
20260507143105 28 10 0.0 0.0 0.00 0.00 0.00 100 1015.7
20260507141609 27 31 0.0 0.0 0.00 0.00 0.00 100 1015.8
20260507140101 27 307 0.0 0.0 0.00 0.00 0.00 100 1015.8
20260507134558 27 314 0.0 0.0 0.00 0.00 0.00 100 1015.8
20260507133142 27 6 0.0 0.0 0.00 0.00 0.00 100 1015.6
20260507131557 27 327 0.0 0.0 0.00 0.00 0.00 100 1015.6
20260507130101 27 320 0.0 0.0 0.00 0.00 0.00 100 1015.5
20260507124555 27 358 0.0 0.0 0.00 0.00 0.00 100 1015.4
20260507123051 27 12 0.0 0.0 0.00 0.00 0.00 100 1015.1
20260507121547 26 336 0.0 0.0 0.00 0.00 0.00 100 1015.1
20260507120046 27 75 0.0 0.0 0.00 0.00 0.00 100 1014.7
20260507114558 27 71 0.0 0.0 0.00 0.00 0.00 100 1014.5
20260507113042 26 83 0.0 0.0 0.00 0.00 0.00 100 1014.4
20260507111542 26 223 0.0 0.0 0.00 0.00 0.00 100 1014.4
20260507110042 25 224 0.0 0.0 0.00 0.00 0.00 100 1014.3
20260507104534 25 130 0.0 0.0 0.00 0.00 0.00 100 1014.2
20260507103043 -17 0.0 0.0 0.00 0.00 0.00 1014.1
20260507101536 -17 0.0 0.0 0.00 0.00 0.00 1014.2
20260507100027 -17 0.0 0.0 0.00 0.00 0.00 1013.9
20260507094523 -17 0.0 0.0 0.00 0.00 0.00 1013.6
20260507093019 -17 0.0 0.0 0.00 0.00 0.00 1013.5
20260507091514 -17 0.0 0.0 0.00 0.00 0.00 1013.4
20260507090012 -17 0.0 0.0 0.00 0.00 0.00 1013.6
20260507084504 -17 0.0 0.0 0.00 0.00 0.00 1013.6
20260507083002 -17 0.0 0.0 0.00 0.00 0.00 1013.8
20260507081557 -17 0.0 0.0 0.00 0.00 0.00 1013.8
20260507080054 -17 0.0 0.0 0.00 0.00 0.00 1013.7
20260507074552 -17 0.0 0.0 0.00 0.00 0.00 1013.7
20260507073051 -17 79 0.0 0.0 0.00 0.00 0.00 1013.8
20260507071543 24 121 0.0 0.0 0.00 0.00 0.00 100 1013.7
20260507070050 25 132 0.0 0.0 0.00 0.00 0.00 100 1013.9
20260507064546 25 123 0.0 0.0 0.00 0.00 0.00 100 1014.1
20260507063038 25 138 0.0 0.0 0.00 0.00 0.00 100 1014.2
20260507061538 25 110 0.0 0.0 0.00 0.00 0.00 100 1014.4
20260507060036 25 212 0.0 0.0 0.00 0.00 0.00 100 1014.6
20260507054535 25 109 0.0 0.0 0.00 0.00 0.00 100 1014.9
20260507053036 25 139 0.0 0.0 0.00 0.00 0.00 100 1015.0
20260507051536 25 126 0.0 0.0 0.00 0.00 0.00 100 1015.1
20260507050037 25 243 0.0 0.0 0.00 0.00 0.00 100 1015.3
20260507044542 26 114 0.0 0.0 0.00 0.00 0.00 100 1015.7
20260507043035 26 126 0.0 0.0 0.00 0.00 0.00 100 1015.7
20260507041535 26 131 0.0 0.0 0.00 0.00 0.00 100 1016.0
20260507040041 26 113 0.0 0.0 0.00 0.00 0.00 100 1016.1
20260507034541 26 138 0.0 0.0 0.00 0.00 0.00 100 1016.3
20260507033044 26 138 0.0 0.0 0.00 0.00 0.00 100 1016.3
20260507031545 26 7 0.0 0.0 0.00 0.00 0.00 100 1016.3
20260507030030 26 52 0.0 0.0 0.00 0.00 0.00 100 1016.4
20260507024526 26 40 0.0 0.0 0.00 0.00 0.00 100 1016.5
20260507023025 26 78 0.0 0.0 0.00 0.00 0.00 100 1016.5
20260507021525 26 17 0.0 0.0 0.00 0.00 0.00 100 1016.4
20260507020025 26 4 0.0 0.0 0.00 0.00 0.00 100 1016.3
20260507014525 26 82 0.0 0.0 0.00 0.00 0.00 100 1016.1
20260507013027 26 54 0.0 0.0 0.00 0.00 0.00 100 1016.1
20260507011529 26 7 0.0 0.0 0.00 0.00 0.00 100 1015.9
20260507010020 26 32 0.0 0.0 0.00 0.00 0.00 100 1015.7
20260507004518 26 347 0.0 0.0 0.00 0.00 0.00 100 1015.7
20260507003019 26 48 0.0 0.0 0.00 0.00 0.00 100 1015.7
20260507001525 26 13 0.0 0.0 0.00 0.00 0.00 100 1015.5
20260507000018 27 121 0.0 0.0 0.00 0.00 0.00 100 1015.4
20260506234517 26 14 0.0 0.0 0.00 0.00 0.00 100 1015.4
20260506233017 27 346 0.0 0.0 0.00 0.00 0.00 100 1015.3
20260506231519 27 50 0.0 0.0 0.00 0.00 0.00 100 1015.2
20260506230017 27 66 0.0 0.0 0.00 0.00 0.00 100 1014.8
20260506224517 27 15 0.0 0.0 0.00 0.00 0.00 100 1014.7
20260506223018 27 28 0.0 0.0 0.00 0.00 0.00 100 1014.5
20260506221515 27 23 0.0 0.0 0.00 0.00 0.00 100 1014.6
20260506220016 27 25 0.0 0.0 0.00 0.00 0.00 100 1014.3
20260506214514 27 329 0.0 0.0 0.00 0.00 0.00 100 1014.2
20260506213014 28 14 0.0 0.0 0.00 0.00 0.00 100 1014.1
20260506211520 28 36 0.0 0.0 0.00 0.00 0.00 100 1014.0
20260506210016 28 360 0.0 0.0 0.00 0.00 0.00 100 1014.0
20260506204510 28 334 0.0 0.0 0.00 0.00 0.00 100 1014.1
20260506203010 28 38 0.0 0.0 0.00 0.00 0.00 99 1014.0
20260506201510 28 3 0.0 0.0 0.00 0.00 0.00 99 1014.0
20260506200007 29 279 0.0 0.0 0.00 0.00 0.00 98 1014.1